Wind_Speed
13 13 12 11 10 9 9 9 9 9 10 10 10 10 10 11 11 11 12 13 13 14 14 14 14 15 15 15 14 14 14 14 14 15 15 15 14 14 14 14 14 14 14 14
15 14 14 13 12 11 11 10 10 10 10 11 12 11 11 11 12 12 12 13 14 14 14 14 14 14 15 15 15 15 15 15 14 15 15 15 15 15 14 15 15 15 14 14
16 16 15 15 13 13 12 11 11 11 11 12 12 11 11 11 12 12 12 13 13 13 14 14 14 15 15 15 15 15 15 15 15 14 14 15 15 15 15 14 14 14 14 15
18 17 17 15 15 14 13 13 12 12 12 12 12 12 12 12 12 13 13 13 13 13 14 14 14 14 15 15 15 15 15 15 15 14 14 15 15 14 14 14 15 15 14 14
19 18 17 17 16 14 14 14 14 13 13 13 13 12 12 12 13 13 14 14 14 14 14 14 14 14 14 15 15 15 15 15 15 15 15 15 15 15 15 15 14 15 15 15
20 20 18 17 16 16 16 15 15 15 14 14 13 13 13 13 14 14 15 15 15 15 15 15 15 15 15 15 15 15 16 16 17 16 16 16 16 16 16 15 15 15 16 17
20 21 19 18 16 16 17 16 16 16 15 15 15 15 15 14 14 14 15 15 16 16 16 16 16 16 17 17 17 17 16 17 17 18 17 17 17 17 16 16 16 17 18 19
21 21 20 19 18 18 18 17 17 17 17 17 16 16 15 15 15 15 15 15 16 16 16 17 17 17 17 17 17 17 17 17 17 18 18 17 17 17 17 18 18 19 20 21
22 21 21 20 20 19 19 18 18 18 18 18 17 17 17 16 16 16 16 16 15 16 16 16 17 17 18 18 18 18 18 17 17 17 17 18 18 18 19 19 20 21 22 23
24 23 22 21 21 20 20 19 19 19 19 18 18 18 17 17 17 17 16 16 16 16 16 17 18 18 18 19 19 19 19 19 18 19 19 19 20 20 21 22 22 23 24 24
25 24 24 23 22 22 21 21 21 20 20 20 19 19 18 17 17 17 17 17 17 17 17 18 19 19 18 18 18 19 20 20 21 20 20 21 22 22 23 23 24 25 25 26
26 25 25 24 23 22 22 22 21 21 21 20 21 20 20 19 19 18 18 18 18 18 18 18 18 19 19 19 19 19 19 20 21 21 21 21 22 23 24 25 26 26 27 28
26 26 25 24 24 24 23 23 23 22 22 21 22 21 21 21 20 19 19 19 19 19 18 19 19 20 20 20 20 21 21 22 21 21 21 21 22 23 24 25 26 27 28 30
26 26 26 25 25 25 24 24 23 23 23 22 22 22 22 21 21 21 20 20 20 20 20 20 20 21 21 21 22 22 22 23 23 23 23 23 24 25 25 26 27 29 30 32
26 26 26 25 25 25 24 24 23 23 23 22 22 22 22 22 21 22 21 21 21 21 21 21 21 21 22 22 22 22 23 23 24 24 24 25 25 26 27 28 30 31 33 34
27 26 26 25 25 24 24 23 23 23 22 22 22 22 22 22 22 22 22 22 22 21 22 22 22 22 22 22 22 23 23 24 24 25 25 26 27 28 29 30 32 33 35 36
28 27 26 26 25 25 24 24 23 23 22 23 23 22 22 22 22 22 22 22 22 23 23 23 23 23 23 22 23 23 24 25 26 26 27 28 28 29 31 32 34 35 37 38
27 27 26 26 26 25 25 25 25 24 23 23 24 23 23 23 23 24 24 24 23 23 23 23 24 24 24 24 24 25 25 26 27 28 28 29 30 32 33 35 36 37 38 38
28 27 26 26 26 26 26 26 26 25 25 24 24 24 25 24 24 24 24 24 24 24 24 25 25 25 25 25 26 26 27 27 28 29 30 31 32 33 35 36 37 38 38 39
29 28 28 27 26 26 26 26 26 26 26 26 25 25 25 26 26 25 25 25 25 26 26 25 25 26 26 27 27 28 28 29 30 31 32 32 34 35 36 37 38 38 39 40
30 29 28 27 27 27 27 27 27 27 27 27 27 27 26 26 26 26 26 26 26 27 27 27 27 27 28 29 29 29 30 30 31 32 32 33 34 36 37 38 39 39 40 41
31 30 29 28 28 27 27 28 28 27 27 27 28 27 27 27 27 27 27 28 28 28 28 29 29 30 30 30 31 31 31 32 32 33 33 34 35 36 38 39 40 41 41 42
31 31 30 29 29 28 28 28 28 27 27 27 27 27 28 28 28 28 28 29 29 29 30 30 30 31 31 32 32 33 33 33 34 34 35 36 37 38 39 40 41 42 42 43
31 30 30 30 29 29 29 28 28 28 28 28 28 28 28 28 29 29 29 30 30 31 31 31 32 33 33 34 34 34 34 35 36 37 38 39 39 39 40 41 42 42 43 44
30 30 30 30 30 30 30 30 30 30 29 29 29 29 30 30 30 30 30 30 31 31 32 32 33 33 34 35 35 35 36 36 37 38 39 40 40 41 41 42 43 43 44 45
29 29 30 30 31 31 31 31 31 31 30 30 30 31 31 31 31 31 31 32 32 32 33 34 34 35 36 36 36 36 37 38 38 39 40 41 41 41 42 42 43 43 44 44
29 29 30 30 30 31 31 31 31 31 31 31 31 32 32 32 32 32 32 32 33 33 34 34 35 35 36 36 37 38 38 39 39 39 40 41 42 42 42 42 42 43 43 43
Wind_Direction
231 233 236 239 243 244 245 245 243 236 234 236 240 233 229 229 229 230 233 232 232 234 235 236 239 241 244 246 248 249 247 248 250 251 252 255 258 263 264 266 266 263 265 270
234 236 238 241 242 245 246 247 248 244 240 241 243 240 237 236 236 238 239 238 236 234 235 237 239 241 244 245 247 246 246 248 252 253 255 257 261 265 266 265 266 266 268 271
237 240 240 241 243 247 249 249 248 244 241 241 244 242 239 238 238 239 239 238 237 236 235 238 241 245 247 245 245 247 247 248 252 257 259 262 264 266 267 266 265 266 268 270
238 242 243 242 242 245 246 246 246 243 242 244 243 241 240 240 241 239 238 238 240 241 239 239 243 245 246 245 247 249 248 250 253 258 262 262 263 266 266 267 269 268 268 272
239 241 241 242 241 242 245 245 246 244 243 245 244 244 243 243 244 244 241 243 245 245 243 243 245 247 247 245 246 249 251 252 256 260 261 261 261 265 268 271 271 271 272 276
240 240 240 241 241 242 245 245 244 244 244 244 246 247 247 247 248 248 246 245 247 248 247 248 246 246 246 245 247 252 256 256 258 259 261 262 262 265 267 268 272 276 277 280
240 241 240 241 241 240 242 245 245 245 244 244 245 247 248 250 251 250 248 247 247 248 248 248 248 247 248 248 249 253 258 259 259 260 262 263 263 265 266 270 274 278 280 282
239 240 240 240 240 239 241 244 245 245 246 246 247 249 250 252 253 252 251 250 249 250 249 249 249 250 250 248 250 254 258 261 261 261 262 262 263 265 268 272 275 278 282 284
240 241 241 239 240 240 242 244 245 246 248 249 250 252 253 254 254 254 252 253 252 251 251 252 250 251 251 250 252 255 259 261 260 262 263 264 265 268 270 273 276 279 283 286
239 240 242 241 241 242 244 247 247 248 249 250 252 254 254 254 254 253 252 252 252 254 253 252 252 253 255 255 255 254 258 261 264 265 266 267 269 271 273 275 278 281 284 288
239 240 242 242 243 243 245 246 248 249 249 250 251 251 252 254 253 252 252 254 255 255 254 254 254 254 258 257 257 258 260 263 265 267 267 270 271 272 275 276 279 283 287 289
238 239 242 242 244 245 245 246 247 248 249 249 249 249 250 251 252 253 253 254 256 256 256 256 256 255 257 259 260 263 265 267 268 268 270 272 273 275 279 282 284 285 288 290
239 239 240 242 244 246 247 247 247 248 249 250 250 250 250 250 251 252 254 255 255 256 258 259 259 257 258 260 261 263 265 267 269 270 271 274 276 278 281 284 286 288 290 292
241 240 241 242 245 247 248 248 248 248 248 248 249 249 250 250 250 251 252 254 254 255 257 260 260 260 260 260 261 264 266 267 269 270 272 275 277 280 282 284 287 289 292 294
240 241 242 243 245 247 248 247 247 246 246 246 247 248 248 248 249 251 252 254 255 256 257 261 263 261 262 261 263 265 266 267 269 271 273 276 279 281 284 286 288 290 293 295
239 240 241 243 244 246 245 245 245 245 245 245 246 247 247 248 250 252 253 254 255 257 258 261 263 262 261 262 263 265 266 268 271 273 275 277 280 283 286 288 290 293 294 296
238 239 240 241 243 243 242 242 242 243 244 247 247 248 248 249 251 252 253 255 256 258 260 261 263 263 263 264 266 268 270 272 274 275 277 279 281 284 287 289 291 293 294 296
237 238 240 241 241 240 239 240 240 241 244 248 249 249 249 250 252 253 255 256 258 260 261 262 264 265 266 268 270 271 273 274 276 277 280 282 284 287 289 290 291 293 294 295
236 237 239 239 239 239 239 239 241 243 245 247 249 249 249 251 252 254 256 258 260 261 263 264 265 266 267 269 270 272 274 276 278 280 282 284 285 287 289 290 292 294 295 296
236 236 236 238 238 239 239 240 242 245 246 247 249 250 251 253 254 255 256 258 261 262 263 263 264 266 268 270 272 274 276 277 279 281 283 284 286 288 290 291 293 293 295 296
236 236 237 237 238 239 240 241 243 245 247 249 250 251 253 255 256 257 258 259 261 262 263 264 266 267 269 271 273 275 277 279 281 284 285 287 288 290 291 293 293 294 295 296
237 236 236 237 238 239 241 243 244 245 247 248 250 251 254 255 256 258 259 261 262 263 264 266 267 270 272 273 274 276 278 280 282 285 286 288 289 291 293 294 295 296 296 297
237 236 236 237 238 240 241 243 244 246 247 249 251 253 255 257 258 260 261 263 265 265 266 266 268 270 272 274 275 276 278 281 283 285 287 288 290 292 294 294 295 297 297 298
237 237 237 238 240 241 243 244 246 247 249 251 253 255 257 259 260 262 263 263 265 266 267 267 268 270 273 275 276 277 279 281 283 285 287 289 290 292 293 295 295 296 298 299
238 238 239 240 242 244 245 247 248 249 251 253 255 258 259 260 261 262 263 264 265 266 267 269 271 272 273 275 277 278 279 281 283 285 287 289 291 292 294 294 295 296 297 298
239 240 241 243 243 245 246 248 250 252 252 254 256 258 260 261 262 263 264 265 266 267 268 270 271 272 274 275 277 279 281 282 284 286 288 290 292 293 294 295 296 297 298 299
239 240 242 244 245 247 248 249 251 252 254 255 256 259 260 261 263 264 266 267 269 270 271 271 272 274 275 276 278 280 281 282 284 286 288 290 291 293 294 295 296 297 298 299
Height
5829 5830 5831 5832 5833 5834 5835 5836 5837 5838 5838 5839 5839 5840 5841 5842 5844 5845 5846 5848 5849 5850 5851 5853 5854 5855 5856 5857 5858 5859 5860 5861 5861 5861 5862 5862 5862 5862 5861 5861 5861 5861 5862 5862
5826 5827 5828 5829 5830 5831 5832 5833 5834 5834 5836 5836 5836 5837 5839 5840 5841 5843 5844 5845 5845 5847 5848 5849 5850 5851 5852 5853 5854 5855 5856 5857 5857 5858 5858 5858 5858 5857 5857 5857 5857 5857 5857 5857
5822 5823 5824 5826 5828 5828 5829 5830 5831 5832 5833 5833 5834 5835 5836 5837 5838 5840 5840 5841 5842 5843 5844 5846 5847 5848 5849 5850 5851 5852 5853 5853 5854 5854 5854 5854 5854 5853 5853 5852 5852 5853 5853 5853
5817 5820 5821 5824 5824 5824 5825 5826 5827 5828 5829 5830 5831 5832 5833 5834 5835 5836 5837 5838 5839 5840 5841 5842 5843 5844 5845 5846 5847 5848 5849 5849 5850 5850 5850 5850 5850 5850 5849 5849 5849 5849 5849 5849
5813 5814 5816 5818 5819 5820 5822 5823 5824 5825 5826 5827 5828 5829 5830 5831 5831 5832 5833 5834 5835 5837 5838 5839 5840 5841 5842 5843 5844 5844 5845 5846 5846 5846 5846 5847 5846 5846 5846 5845 5845 5845 5845 5845
5808 5810 5812 5815 5815 5816 5818 5819 5820 5821 5822 5823 5824 5826 5827 5827 5828 5829 5830 5831 5832 5833 5834 5835 5836 5837 5838 5839 5840 5840 5841 5841 5842 5842 5842 5843 5842 5842 5842 5842 5841 5841 5840 5840
5802 5804 5807 5809 5810 5812 5815 5816 5816 5816 5818 5819 5820 5822 5822 5823 5824 5825 5826 5827 5828 5829 5830 5831 5832 5833 5834 5835 5835 5836 5837 5837 5837 5838 5838 5838 5838 5838 5838 5837 5837 5837 5836 5835
5796 5799 5803 5804 5805 5807 5809 5810 5811 5812 5813 5815 5816 5817 5818 5819 5820 5821 5822 5823 5823 5824 5826 5827 5828 5828 5829 5830 5831 5832 5832 5833 5833 5833 5833 5833 5833 5833 5833 5833 5832 5831 5830 5829
5792 5796 5796 5798 5799 5801 5803 5804 5806 5807 5809 5810 5811 5812 5813 5814 5815 5816 5817 5818 5819 5820 5821 5822 5823 5824 5825 5826 5826 5827 5827 5828 5828 5828 5829 5829 5829 5828 5828 5827 5827 5826 5825 5823
5785 5787 5789 5791 5793 5795 5797 5799 5800 5802 5804 5805 5806 5807 5808 5810 5810 5811 5812 5813 5814 5815 5816 5817 5818 5819 5820 5820 5821 5822 5823 5823 5823 5823 5823 5823 5823 5823 5822 5822 5821 5819 5818 5817
5778 5781 5783 5785 5787 5789 5791 5793 5795 5796 5798 5799 5801 5802 5803 5804 5805 5807 5808 5809 5810 5810 5811 5812 5813 5814 5814 5815 5816 5817 5817 5818 5818 5818 5818 5817 5817 5816 5816 5815 5814 5813 5811 5810
5772 5774 5777 5779 5781 5783 5785 5787 5788 5790 5792 5793 5795 5796 5798 5799 5800 5801 5802 5803 5804 5805 5806 5807 5808 5808 5809 5810 5810 5811 5812 5812 5812 5812 5811 5811 5810 5810 5809 5808 5807 5805 5804 5802
5764 5766 5769 5772 5774 5776 5778 5780 5782 5784 5785 5787 5788 5790 5792 5793 5794 5796 5797 5798 5799 5800 5801 5801 5802 5803 5804 5804 5805 5805 5805 5806 5805 5805 5805 5804 5804 5803 5802 5801 5799 5797 5795 5793
5756 5759 5762 5765 5767 5769 5771 5773 5775 5777 5779 5780 5782 5784 5785 5787 5788 5789 5791 5792 5793 5794 5795 5795 5796 5797 5797 5798 5798 5799 5799 5799 5799 5799 5798 5798 5797 5796 5794 5793 5791 5789 5787 5784
5749 5752 5755 5757 5760 5762 5764 5766 5768 5770 5772 5774 5775 5777 5779 5780 5782 5783 5784 5786 5787 5788 5788 5789 5790 5790 5791 5791 5792 5792 5792 5792 5792 5791 5791 5790 5789 5788 5786 5785 5783 5780 5778 5775
5741 5744 5747 5750 5752 5754 5756 5759 5761 5763 5765 5767 5769 5770 5772 5774 5775 5776 5778 5779 5780 5781 5782 5782 5783 5783 5784 5784 5784 5785 5785 5785 5784 5784 5783 5782 5781 5779 5778 5776 5773 5771 5768 5765
5733 5736 5739 5742 5744 5747 5749 5751 5754 5756 5758 5760 5762 5763 5765 5767 5768 5769 5771 5772 5773 5774 5775 5775 5776 5776 5777 5777 5777 5777 5777 5777 5776 5776 5775 5773 5772 5770 5769 5766 5764 5761 5758 5754
5725 5728 5731 5734 5737 5739 5741 5744 5746 5749 5751 5753 5755 5757 5758 5760 5761 5762 5764 5765 5766 5767 5767 5768 5769 5769 5769 5770 5770 5770 5769 5769 5768 5767 5766 5764 5763 5761 5759 5757 5754 5751 5747 5743
5717 5720 5723 5726 5729 5731 5734 5736 5739 5742 5744 5746 5748 5749 5751 5752 5754 5755 5756 5758 5758 5759 5760 5760 5761 5761 5762 5762 5762 5761 5761 5760 5759 5758 5757 5755 5753 5751 5749 5746 5743 5740 5736 5732
5709 5712 5715 5718 5721 5724 5726 5729 5732 5734 5736 5738 5740 5742 5743 5745 5746 5748 5749 5750 5750 5751 5752 5752 5753 5753 5753 5753 5753 5753 5752 5751 5750 5749 5747 5745 5743 5741 5738 5735 5732 5728 5725 5721
5701 5704 5707 5711 5713 5716 5719 5721 5724 5726 5728 5730 5732 5734 5736 5737 5738 5739 5740 5742 5742 5743 5743 5744 5744 5745 5745 5745 5744 5744 5743 5742 5740 5739 5737 5735 5733 5730 5727 5724 5721 5717 5713 5709
5692 5696 5699 5702 5705 5708 5711 5713 5716 5718 5720 5722 5724 5726 5727 5729 5730 5731 5732 5733 5733 5734 5734 5735 5735 5735 5735 5735 5735 5734 5733 5732 5730 5728 5726 5724 5722 5719 5716 5713 5709 5705 5701 5697
5683 5687 5691 5694 5697 5700 5702 5705 5707 5710 5712 5714 5715 5717 5718 5720 5721 5722 5723 5724 5724 5725 5725 5726 5726 5725 5725 5725 5724 5724 5722 5721 5720 5718 5715 5713 5710 5707 5704 5701 5697 5693 5689 5685
5675 5678 5682 5685 5688 5691 5694 5696 5699 5701 5703 5705 5706 5708 5709 5710 5711 5712 5713 5714 5714 5714 5715 5715 5715 5715 5715 5714 5714 5713 5711 5710 5708 5707 5704 5701 5699 5695 5692 5689 5685 5681 5677 5672
5667 5670 5673 5676 5679 5682 5685 5687 5690 5692 5694 5695 5697 5698 5699 5700 5701 5702 5703 5703 5704 5704 5704 5704 5704 5704 5704 5703 5702 5701 5700 5699 5697 5695 5692 5689 5686 5683 5680 5676 5672 5668 5664 5660
5659 5662 5665 5668 5670 5673 5675 5678 5680 5682 5684 5686 5687 5688 5689 5690 5691 5692 5692 5693 5693 5693 5694 5694 5693 5693 5692 5692 5691 5689 5688 5686 5684 5682 5680 5677 5674 5670 5667 5663 5660 5656 5651 5647
5650 5653 5656 5659 5661 5663 5666 5668 5670 5672 5674 5676 5677 5678 5679 5680 5680 5681 5682 5682 5682 5682 5682 5682 5682 5681 5681 5680 5678 5677 5675 5674 5672 5669 5667 5664 5661 5658 5655 5651 5647 5643 5639 5635